Overview Statistics Trail Chart Weather Telemetry Raw packets
 

This is the latest recevied weather packets stored in our database for station/object SV9TNF-56. If no packets are shown the sender has not sent any weather packets the latest 10 day(s).

<< 8 9 10 11 12 13 14 >>
Time Temp. Humidity Pressure Rain* Wind** Luminosity Snow
1788597158 25.56° C 59% 1013.2 hPa 0 mm 24.59 m/s, 286° - -
1788596858 25.56° C 59% 1013.6 hPa 0 mm 13.86 m/s, 312° - -
1788596558 25.56° C 60% 1013.2 hPa 0 mm 21.9 m/s, 274° - -
1788596258 25.56° C 59% 1013.2 hPa 0 mm 15.2 m/s, 307° - -
1788595958 25.56° C 59% 1013.6 hPa 0 mm 23.25 m/s, 327° - -
1788595658 25.56° C 57% 1013.2 hPa 0 mm 27.72 m/s, 253° - -
1788595357 25.56° C 57% 1013.2 hPa 0 mm 17.88 m/s, 228° - -
1788595057 25.56° C 57% 1013.2 hPa 0 mm 39.79 m/s, 281° - -
1788594757 25° C 58% 1012.9 hPa 0 mm 17.88 m/s, 228° - -
1788594457 25° C 58% 1013.2 hPa 0 mm 12.07 m/s, 24° - -
1788594157 25° C 57% 1012.9 hPa 0 mm 29.95 m/s, 256° - -
1788593857 25.56° C 56% 1013.2 hPa 0 mm 32.63 m/s, 317° - -
1788593557 25.56° C 55% 1013.2 hPa 0 mm 13.86 m/s, 265° - -
1788593257 25.56° C 55% 1012.9 hPa 0 mm 26.82 m/s, 246° - -
1788592957 25° C 55% 1012.9 hPa 0 mm 21.9 m/s, 278° - -
1788592657 25.56° C 54% 1013.2 hPa 0 mm 29.95 m/s, 245° - -
1788592357 25° C 55% 1012.5 hPa 0 mm 30.85 m/s, 258° - -
1788592057 25° C 54% 1012.5 hPa 0 mm 12.07 m/s, 234° - -
1788591756 25° C 55% 1012.9 hPa 0 mm 16.99 m/s, 294° - -
1788591456 25° C 55% 1012.2 hPa 0 mm 34.87 m/s, 258° - -
1788591156 25° C 55% 1012.2 hPa 0 mm 32.63 m/s, 213° - -
1788590856 25° C 54% 1011.9 hPa 0 mm 33.08 m/s, 256° - -
1788590556 25° C 54% 1012.2 hPa 0 mm 17.88 m/s, 270° - -
1788590256 25° C 53% 1012.2 hPa 0 mm 17.88 m/s, 132° - -
1788589955 25° C 53% 1012.2 hPa 0 mm 13.86 m/s, 289° - -

* Rain latest hour (hover to see other rain measurements)
** Current wind speed in m/s (hover to see current wind gust speed)